Location: Pine Creek
(45.5072°N, 110.5649°W)
Time: 16:25:58
(UTC+00:00)

Envisat - Pass Details

Date: 24 January 2022
Orbit: 764 x 765 km, 98.2° (Epoch: 19 May)

Event Time Altitude Azimuth Distance (km) Brightness Sun altitude
Rises 13:51:38 0° 359° (N) 3,241 6.1 -10.6°
Reaches altitude 10° 13:54:40 10° 340° (NNW) 2,310 5.1 -10.1°
Maximum altitude 13:57:52 17° 301° (WNW) 1,864 4.4 -9.6°
Drops below altitude 10° 14:01:03 10° 261° (W) 2,302 4.9 -9.0°
Sets 14:04:05 0° 242° (WSW) 3,224 5.8 -8.5°
